Find Local Weather

World > North America > United States > Washington

Tacoma, Washington Regional Weather

Lat: 47.25N, Lon: 122.44W
Wx Zone: WAZ509
Feedback
Expires:201901201500;;650087
ASUS46 KSEW 201410
RWRWA 

WASHINGTON REGIONAL WEATHER ROUNDUP
NATIONAL WEATHER SERVICE SEATTLE WA
600 AM PST SUN JAN 20 2019

NOTE:"FAIR" INDICATES FEW OR NO CLOUDS BELOW 12,000 FEET WITH NO 
SIGNIFICANT WEATHER AND/OR OBSTRUCTIONS TO VISIBILITY.


WAZ507-509-555>559-201500-
SEATTLE, TACOMA, EVERETT, AND VICINITY
  
CITY           SKY/WX    TMP DP  RH WIND       PRES   REMARKS
EVERETT        CLOUDY    40  38  93 NW7       29.96F                  
BOEING FIELD   CLOUDY    42  38  85 CALM      29.96F                  
RENTON         CLOUDY    42  39  89 N7        29.95F                  
SEATAC AIRPORT CLOUDY    42  38  85 N12       29.94F                  
JBLM-MCCHORD   FOG       36  36 100 CALM      29.94F VSB 3/4          
PUYALLUP       MOCLDY    37  37 100 CALM      29.93F FOG              
BREMERTON      CLOUDY    39  38  96 N8        29.95F                  
JBLM-FT LEWIS  CLOUDY    39  39 100 CALM      29.93F FOG              
TACOMA NARROWS CLOUDY    41  38  89 N10       29.94F                  
$$
 

SKY/WX - Weather  TMP - Temperature  DP - Dew Point  RH - Relative Humidity
WIND - Wind Direction/Speed PRES - Barometric Pressure